EW4696 Weather Reports


time (UTC)temp
C
wind
direction
speed
KPH
gust
KPH
rain 1hr
cm
rain 24hr
cm
rain mn
cm
humidity
%
barometer
mb
20260506215504 17 71 1.6 8.0 0.00 0.13 0.13 82 1012.7
20260506215004 17 70 1.6 6.4 0.00 0.13 0.13 83 1012.6
20260506214504 17 70 1.6 6.4 0.00 0.13 0.13 82 1012.6
20260506214004 17 72 1.6 4.8 0.00 0.13 0.13 81 1012.6
20260506213504 17 67 1.6 11.3 0.00 0.13 0.13 83 1012.5
20260506213005 17 60 1.6 11.3 0.00 0.13 0.13 83 1012.6
20260506212504 17 62 1.6 4.8 0.00 0.13 0.13 82 1012.7
20260506212004 17 60 1.6 4.8 0.00 0.13 0.13 82 1012.9
20260506211005 17 39 1.6 11.3 0.00 0.13 0.13 82 1012.8
20260506210504 17 53 1.6 11.3 0.00 0.13 0.13 81 1012.9
20260506210004 17 82 1.6 8.0 0.00 0.13 0.13 81 1013.2
20260506205504 17 62 1.6 9.7 0.00 0.13 0.13 81 1013.1
20260506205005 17 38 1.6 9.7 0.00 0.13 0.13 81 1013.1
20260506204504 17 15 1.6 8.0 0.00 0.13 0.13 82 1013.2
20260506203004 18 66 1.6 8.0 0.00 0.13 0.13 80 1013.0
20260506202505 18 95 1.6 9.7 0.00 0.13 0.13 80 1013.0
20260506202004 18 91 1.6 9.7 0.00 0.13 0.13 80 1013.0
20260506201004 19 87 1.6 4.8 0.00 0.13 0.13 80 1012.8
20260506200004 20 101 1.6 8.0 0.00 0.13 0.13 79 1012.8
20260506195004 20 89 1.6 8.0 0.00 0.13 0.13 79 1012.7
20260506194004 20 65 1.6 9.7 0.00 0.13 0.13 79 1012.5
20260506193504 21 27 1.6 8.0 0.00 0.13 0.13 80 1012.5
20260506193004 21 12 1.6 8.0 0.00 0.13 0.13 80 1012.6
20260506192504 21 50 1.6 8.0 0.00 0.13 0.13 80 1012.5
20260506192004 21 86 1.6 6.4 0.00 0.13 0.13 80 1012.6
20260506191005 22 0 0.0 4.8 0.00 0.13 0.13 78 1012.6
20260506190504 22 0 0.0 4.8 0.00 0.13 0.13 79 1012.8
20260506185504 23 58 1.6 9.7 0.00 0.13 0.13 78 1012.6
20260506185005 23 0 0.0 6.4 0.00 0.13 0.13 80 1012.5
20260506184504 23 65 1.6 6.4 0.00 0.13 0.13 78 1012.4
20260506184004 23 64 1.6 6.4 0.00 0.13 0.13 80 1012.4
20260506183504 23 63 1.6 6.4 0.03 0.13 0.13 79 1012.5
20260506183005 23 0 0.0 9.7 0.03 0.13 0.13 80 1012.4
20260506182504 22 57 1.6 9.7 0.03 0.13 0.13 81 1012.4
20260506182004 22 55 1.6 8.0 0.03 0.13 0.13 81 1012.4
20260506181004 22 52 1.6 6.4 0.03 0.13 0.13 83 1012.6
20260506180504 22 0 0.0 4.8 0.03 0.13 0.13 83 1012.4
20260506175505 21 95 1.6 8.0 0.03 0.13 0.13 84 1012.3
20260506174504 21 104 1.6 12.9 0.03 0.13 0.13 83 1012.2
20260506174004 20 110 1.6 12.9 0.03 0.13 0.13 85 1012.1
20260506173504 20 111 3.2 9.7 0.00 0.10 0.10 86 1012.2
20260506173004 20 103 3.2 11.3 0.00 0.10 0.10 85 1012.1
20260506172004 19 67 1.6 8.0 0.00 0.10 0.10 88 1012.3
20260506171504 19 65 1.6 8.0 0.00 0.10 0.10 89 1012.3
20260506171004 18 94 1.6 8.0 0.00 0.10 0.10 89 1012.2
20260506170504 18 95 1.6 8.0 0.00 0.10 0.10 89 1012.3
20260506170004 17 90 1.6 8.0 0.00 0.10 0.10 89 1012.4
20260506165504 17 87 1.6 9.7 0.00 0.10 0.10 89 1012.4
20260506164505 17 0 0.0 6.4 0.00 0.10 0.10 89 1012.7
20260506164004 17 0 0.0 6.4 0.05 0.10 0.10 88 1012.8
20260506163004 17 72 1.6 11.3 0.08 0.10 0.10 88 1013.4
20260506162004 16 45 1.6 9.7 0.08 0.10 0.10 89 1013.1
20260506161504 16 49 1.6 8.0 0.08 0.10 0.10 89 1013.4
20260506161004 16 0 0.0 8.0 0.08 0.10 0.10 89 1013.7
20260506160504 16 0 0.0 1.6 0.08 0.10 0.10 89 1014.0
20260506155504 17 0 0.0 0.0 0.08 0.10 0.10 89 1013.8
20260506155004 17 0 0.0 0.0 0.08 0.10 0.10 89 1013.9
20260506154504 17 0 0.0 0.0 0.08 0.10 0.10 89 1013.5
20260506154004 18 0 0.0 0.0 0.03 0.05 0.05 89 1013.6
20260506153504 18 0 0.0 0.0 0.03 0.05 0.05 89 1013.8
20260506153005 18 0 0.0 0.0 0.00 0.03 0.03 89 1013.4
20260506152504 19 0 0.0 0.0 0.00 0.03 0.03 89 1013.1
20260506152004 19 0 0.0 0.0 0.00 0.03 0.03 88 1012.9
20260506151504 20 0 0.0 0.0 0.00 0.03 0.03 87 1012.5
20260506151004 20 0 0.0 0.0 0.00 0.03 0.03 87 1012.5
20260506150505 21 0 0.0 0.0 0.00 0.03 0.03 85 1012.4
20260506150004 22 0 0.0 0.0 0.00 0.03 0.03 83 1012.3
20260506145504 24 0 0.0 0.0 0.00 0.03 0.03 85 1012.0
20260506145004 25 0 0.0 0.0 0.00 0.03 0.03 88 1011.5
20260506144505 25 0 0.0 0.0 0.00 0.03 0.03 88 1011.2
20260506144028 25 0 0.0 0.0 0.00 0.03 0.03 88 1011.1
20260506142504 25 0 0.0 0.0 0.00 0.03 0.03 88 1010.7
20260506142004 25 0 0.0 0.0 0.00 0.03 0.03 88 1010.6
20260506140504 24 0 0.0 0.0 0.00 0.03 0.03 88 1010.6
20260506140006 24 0 0.0 0.0 0.00 0.03 0.03 89 1010.7
20260506135504 23 0 0.0 0.0 0.00 0.03 0.03 88 1010.9
20260506134505 23 0 0.0 0.0 0.00 0.03 0.03 88 1010.3
20260506134004 23 0 0.0 0.0 0.00 0.03 0.03 88 1010.4
20260506133504 23 0 0.0 0.0 0.00 0.03 0.03 88 1010.4
20260506133005 23 0 0.0 0.0 0.00 0.03 0.03 88 1010.3
20260506132504 23 0 0.0 0.0 0.00 0.03 0.03 88 1010.3
20260506132004 23 0 0.0 0.0 0.00 0.03 0.03 88 1010.3
20260506131505 23 0 0.0 0.0 0.00 0.03 0.03 88 1010.2
20260506131004 23 0 0.0 0.0 0.00 0.03 0.03 88 1010.1
20260506130505 23 0 0.0 0.0 0.00 0.03 0.03 88 1010.1
20260506130005 23 0 0.0 0.0 0.00 0.03 0.03 88 1010.1
20260506125504 23 0 0.0 0.0 0.00 0.03 0.03 88 1010.1
20260506124504 23 0 0.0 0.0 0.00 0.03 0.03 88 1009.9
20260506124004 23 0 0.0 0.0 0.00 0.03 0.03 88 1009.9
20260506123004 22 0 0.0 0.0 0.00 0.03 0.03 88 1009.7
20260506122505 22 0 0.0 0.0 0.00 0.03 0.03 88 1009.7
20260506122004 22 0 0.0 0.0 0.00 0.03 0.03 88 1009.7
20260506121504 22 0 0.0 0.0 0.00 0.03 0.03 88 1009.8
20260506121004 23 0 0.0 0.0 0.00 0.03 0.03 88 1009.8
20260506120504 23 0 0.0 0.0 0.00 0.03 0.03 88 1009.8
20260506120005 23 0 0.0 0.0 0.00 0.03 0.03 88 1009.8
20260506114005 23 0 0.0 0.0 0.00 0.03 0.03 88 1009.6
20260506113504 23 0 0.0 0.0 0.00 0.03 0.03 88 1009.7
20260506113004 23 0 0.0 0.0 0.00 0.03 0.03 88 1009.8
20260506112504 23 0 0.0 0.0 0.03 0.03 0.03 88 1009.8
20260506112004 23 0 0.0 0.0 0.03 0.03 0.03 88 1009.8
20260506111504 23 0 0.0 0.0 0.03 0.03 0.03 88 1009.8
20260506111004 23 0 0.0 0.0 0.03 0.03 0.03 88 1009.8
20260506110504 23 0 0.0 0.0 0.03 0.03 0.03 88 1009.7
20260506110005 23 0 0.0 0.0 0.03 0.03 0.03 88 1009.7
20260506105504 23 0 0.0 0.0 0.03 0.03 0.03 88 1009.7
20260506105004 23 0 0.0 0.0 0.03 0.03 0.03 88 1009.7
20260506104504 23 0 0.0 0.0 0.03 0.03 0.03 88 1009.7
20260506104004 23 0 0.0 0.0 0.03 0.03 0.03 88 1009.7
20260506103504 23 0 0.0 0.0 0.03 0.03 0.03 88 1009.5
20260506103004 23 0 0.0 0.0 0.03 0.03 0.03 88 1009.5
20260506102504 23 0 0.0 0.0 0.00 0.00 0.00 88 1009.5
20260506101004 23 0 0.0 0.0 0.00 0.00 0.00 88 1009.4
20260506100504 23 0 0.0 0.0 0.00 0.00 0.00 88 1009.3
20260506100005 23 0 0.0 0.0 0.00 0.00 0.00 89 1009.3
20260506095505 23 0 0.0 0.0 0.00 0.00 0.00 89 1009.3
20260506095004 23 0 0.0 0.0 0.00 0.00 0.00 89 1009.0
20260506094503 23 0 0.0 0.0 0.00 0.00 0.00 89 1009.1
20260506094004 23 0 0.0 0.0 0.00 0.00 0.00 89 1008.9
20260506093504 23 0 0.0 0.0 0.00 0.00 0.00 89 1008.8
20260506093004 23 0 0.0 0.0 0.00 0.00 0.00 89 1008.7
20260506092004 23 0 0.0 0.0 0.00 0.00 0.00 89 1008.8
20260506091504 23 0 0.0 0.0 0.00 0.00 0.00 89 1008.7
20260506090504 23 0 0.0 1.6 0.00 0.00 0.00 89 1008.5
20260506085504 23 0 0.0 4.8 0.00 0.00 0.00 89 1008.3
20260506085004 23 0 0.0 4.8 0.00 0.00 0.00 89 1008.5
20260506084504 23 0 0.0 8.0 0.00 0.00 0.00 89 1008.4
20260506083504 23 137 1.6 6.4 0.00 0.00 0.00 89 1008.5
20260506083004 23 132 1.6 6.4 0.00 0.00 0.00 89 1008.5
20260506082004 23 217 1.6 4.8 0.00 0.00 0.00 89 1008.4
20260506081504 23 224 1.6 8.0 0.00 0.00 0.00 89 1008.3
20260506080504 23 164 1.6 8.0 0.00 0.00 0.00 89 1008.5
20260506073504 23 201 1.6 6.4 0.00 0.00 0.00 89 1008.8
20260506073004 23 198 1.6 11.3 0.00 0.00 0.00 89 1008.7
20260506072504 23 223 1.6 11.3 0.00 0.00 0.00 89 1008.8
20260506072004 23 226 1.6 9.7 0.00 0.00 0.00 89 1008.9
20260506071503 23 208 1.6 9.7 0.00 0.00 0.00 89 1008.9
20260506071004 23 199 1.6 9.7 0.00 0.00 0.00 89 1008.8
20260506070504 23 206 3.2 11.3 0.00 0.00 0.00 89 1008.8
20260506062504 23 209 3.2 9.7 0.00 0.00 0.00 88 1008.8
20260506062003 23 204 1.6 11.3 0.00 0.00 0.00 88 1008.8
20260506061504 23 205 1.6 11.3 0.00 0.00 0.00 88 1008.8
20260506061004 23 241 1.6 14.5 0.00 0.00 0.00 88 1008.7
20260506060504 23 250 1.6 14.5 0.00 0.00 0.00 88 1008.7
20260506051004 24 213 1.6 9.7 0.00 0.00 0.00 88 1008.9
20260506050504 24 225 1.6 11.3 0.00 0.00 0.00 88 1009.0
20260506045004 24 200 1.6 6.4 0.00 0.00 0.00 88 1008.8
20260506044504 24 190 1.6 6.4 0.00 0.00 0.00 88 1008.9
20260506044004 24 190 1.6 8.0 0.00 0.00 0.00 88 1008.8
20260506043505 24 192 1.6 8.0 0.00 0.00 0.00 88 1008.8
20260506043004 24 193 1.6 8.0 0.00 0.00 0.00 88 1008.7
20260506042504 24 186 1.6 8.0 0.00 0.00 0.00 88 1008.6
20260506042004 24 174 1.6 8.0 0.00 0.00 0.00 88 1008.7
20260506041504 24 175 1.6 8.0 0.00 0.00 0.00 88 1008.7
20260506041004 24 176 1.6 11.3 0.00 0.00 0.00 88 1008.7
20260506040504 24 175 1.6 11.3 0.00 0.00 0.00 88 1008.5
20260506040004 24 0 0.0 4.8 0.00 0.00 0.00 88 1008.4
20260506035004 24 177 1.6 9.7 0.00 0.00 0.00 88 1008.4
20260506034504 24 0 0.0 9.7 0.00 0.00 0.00 88 1008.2
20260506034004 25 0 0.0 8.0 0.00 0.00 0.00 88 1008.2
20260506033504 25 175 1.6 6.4 0.00 0.00 0.00 87 1008.2
20260506033004 25 173 1.6 6.4 0.00 0.00 0.00 87 1008.3
20260506032504 25 171 1.6 6.4 0.00 0.00 0.00 87 1008.2
20260506032004 25 0 0.0 6.4 0.00 0.00 0.00 87 1008.2
20260506031504 25 159 1.6 8.0 0.00 0.00 0.00 87 1008.1
20260506031004 25 131 1.6 8.0 0.00 0.00 0.00 87 1008.0
20260506030504 25 87 1.6 4.8 0.00 0.00 0.00 87 1008.0
20260506030004 25 86 1.6 11.3 0.00 0.00 0.00 86 1008.0
20260506024504 25 0 0.0 3.2 0.00 0.00 0.00 85 1007.7
20260506024004 25 0 0.0 3.2 0.00 0.00 0.00 85 1007.6
20260506023504 25 0 0.0 1.6 0.00 0.00 0.00 85 1007.5
20260506023004 25 0 0.0 1.6 0.00 0.00 0.00 85 1007.4
20260506022504 25 0 0.0 1.6 0.00 0.00 0.00 85 1007.3
20260506022004 25 0 0.0 1.6 0.00 0.00 0.00 85 1007.2
20260506021504 25 0 0.0 3.2 0.00 0.00 0.00 84 1007.1
20260506021004 25 0 0.0 3.2 0.00 0.00 0.00 84 1007.1
20260506020504 25 0 0.0 3.2 0.00 0.00 0.00 84 1007.0
20260506020004 25 0 0.0 4.8 0.00 0.00 0.00 84 1006.8
20260506015504 25 0 0.0 4.8 0.00 0.00 0.00 83 1006.7
20260506015004 26 0 0.0 1.6 0.00 0.00 0.00 83 1006.8
20260506014504 26 0 0.0 1.6 0.00 0.00 0.00 83 1006.7
20260506014003 26 0 0.0 1.6 0.00 0.00 0.00 82 1006.7
20260506013504 26 0 0.0 1.6 0.00 0.00 0.00 82 1006.7
20260506013004 26 0 0.0 1.6 0.00 0.00 0.00 82 1006.8
20260506012504 26 0 0.0 1.6 0.00 0.00 0.00 81 1006.7
20260506012004 26 0 0.0 1.6 0.00 0.00 0.00 81 1006.6
20260506011004 26 0 0.0 4.8 0.00 0.00 0.00 80 1006.6
20260506010503 26 0 0.0 4.8 0.00 0.00 0.00 80 1006.6
20260506010004 27 0 0.0 4.8 0.00 0.00 0.00 79 1006.7
20260506005504 27 0 0.0 3.2 0.00 0.00 0.00 79 1006.7
20260506004505 27 0 0.0 3.2 0.00 0.00 0.00 78 1006.7
20260506004004 27 0 0.0 1.6 0.00 0.00 0.00 78 1006.7
20260506003504 27 0 0.0 4.8 0.00 0.00 0.00 77 1006.7
20260506003003 27 0 0.0 4.8 0.00 0.00 0.00 77 1006.7
20260506002504 27 0 0.0 3.2 0.00 0.00 0.00 77 1006.7
20260506002004 27 0 0.0 3.2 0.00 0.00 0.00 76 1006.7
20260506001504 27 0 0.0 3.2 0.00 0.00 0.00 76 1006.7
20260506001004 27 0 0.0 4.8 0.00 0.00 0.00 76 1006.6
20260506000504 27 0 0.0 6.4 0.00 0.00 0.00 76 1006.7
20260506000004 27 178 1.6 8.0 0.00 0.00 0.00 76 1006.7
20260505235504 27 0 0.0 8.0 0.00 0.00 0.00 75 1006.7
20260505235003 27 169 1.6 8.0 0.00 0.00 0.00 76 1006.4
20260505234504 27 177 1.6 8.0 0.00 0.00 0.00 75 1006.4
20260505233504 27 221 1.6 9.7 0.00 0.00 0.00 75 1006.3
20260505233003 27 196 1.6 9.7 0.00 0.00 0.00 75 1006.3
20260505232503 27 175 1.6 6.4 0.00 0.00 0.00 75 1006.2
20260505232004 28 156 1.6 6.4 0.00 0.00 0.00 75 1006.2
20260505231504 28 186 1.6 8.0 0.00 0.00 0.00 75 1006.2
20260505231004 28 206 1.6 11.3 0.00 0.00 0.00 74 1006.2
20260505230504 28 198 1.6 11.3 0.00 0.00 0.00 74 1006.2
20260505225504 28 209 1.6 11.3 0.00 0.00 0.00 73 1006.1
20260505225003 28 202 1.6 8.0 0.00 0.00 0.00 74 1006.1
20260505224004 28 335 1.6 8.0 0.00 0.00 0.00 73 1006.2
20260505223504 28 10 1.6 6.4 0.00 0.00 0.00 72 1006.1
20260505223004 28 176 1.6 9.7 0.00 0.00 0.00 71 1006.1
20260505222504 28 186 1.6 11.3 0.00 0.00 0.00 72 1006.0
20260505220504 28 212 3.2 11.3 0.00 0.00 0.00 71 1006.2
20260505220004 28 205 3.2 12.9 0.00 0.00 0.00 71 1006.3